| time (UTC) | temp F | wind direction | speed MPH | gust MPH | rain 1hr in | rain 24hr in | rain mn in | humidity % | barometer mb |
| 20260905194841 | 60 | 292 | 1.0 | 2.0 | 0.00 | 0.04 | 0.04 | 84 | 1018.0 |
| 20260905193941 | 60 | 292 | 1.0 | 2.0 | 0.00 | 0.04 | 0.04 | 84 | 1017.9 |
| 20260905193042 | 60 | 292 | 1.0 | 2.0 | 0.00 | 0.04 | 0.04 | 84 | 1018.0 |
| 20260905192141 | 60 | 292 | 1.0 | 2.0 | 0.00 | 0.04 | 0.04 | 84 | 1017.9 |
| 20260905191241 | 60 | 292 | 1.0 | 2.0 | 0.00 | 0.04 | 0.04 | 84 | 1018.1 |
| 20260905190341 | 60 | 292 | 1.0 | 2.0 | 0.00 | 0.04 | 0.04 | 84 | 1018.1 |
| 20260905184541 | 60 | 270 | 0.0 | 2.0 | 0.01 | 0.04 | 0.04 | 84 | 1018.3 |
| 20260905183641 | 60 | 315 | 2.0 | 2.0 | 0.01 | 0.04 | 0.04 | 81 | 1018.5 |
| 20260905182741 | 60 | 315 | 2.0 | 2.0 | 0.01 | 0.04 | 0.04 | 81 | 1018.4 |
| 20260905181841 | 60 | 315 | 2.0 | 4.0 | 0.01 | 0.04 | 0.04 | 81 | 1018.2 |
| 20260905180941 | 60 | 292 | 0.0 | 4.0 | 0.01 | 0.04 | 0.04 | 81 | 1018.0 |
| 20260905180041 | 60 | 270 | 1.0 | 2.0 | 0.01 | 0.04 | 0.04 | 80 | 1018.1 |
| 20260905175148 | 64 | 270 | 2.0 | 2.0 | 0.00 | 0.02 | 0.02 | 78 | 1016.9 |
| 20260905164636 | 64 | 270 | 2.0 | 2.0 | 0.00 | 0.02 | 0.02 | 78 | 1016.9 |
| 20260905163736 | 64 | 270 | 2.0 | 2.0 | 0.00 | 0.02 | 0.02 | 78 | 1016.9 |
| 20260905162836 | 64 | 270 | 2.0 | 2.0 | 0.00 | 0.02 | 0.02 | 78 | 1017.0 |
| 20260905161936 | 64 | 270 | 2.0 | 2.0 | 0.00 | 0.02 | 0.02 | 78 | 1017.3 |
| 20260905160136 | 64 | 270 | 2.0 | 2.0 | 0.00 | 0.02 | 0.02 | 78 | 1016.9 |
| 20260905155236 | 64 | 270 | 2.0 | 2.0 | 0.00 | 0.02 | 0.02 | 78 | 1016.5 |
| 20260905154336 | 64 | 202 | 1.0 | 4.0 | 0.00 | 0.02 | 0.02 | 78 | 1016.5 |
| 20260905153436 | 65 | 270 | 2.0 | 4.0 | 0.00 | 0.02 | 0.02 | 74 | 1016.2 |
| 20260905152536 | 65 | 225 | 0.0 | 2.0 | 0.00 | 0.02 | 0.02 | 74 | 1016.3 |
| 20260905151636 | 67 | 338 | 2.0 | 4.0 | 0.00 | 0.02 | 0.02 | 69 | 1016.3 |
| 20260905150736 | 67 | 315 | 2.0 | 4.0 | 0.00 | 0.02 | 0.02 | 66 | 1016.4 |
| 20260905145843 | 68 | 315 | 2.0 | 4.0 | 0.00 | 0.02 | 0.02 | 65 | 1016.4 |
| 20260905143406 | 68 | 315 | 2.0 | 8.0 | 0.00 | 0.02 | 0.02 | 65 | 1016.5 |
| 20260905141606 | 69 | 315 | 7.0 | 11.0 | 0.00 | 0.02 | 0.02 | 62 | 1016.7 |
| 20260905140706 | 69 | 315 | 4.0 | 11.0 | 0.00 | 0.02 | 0.02 | 63 | 1016.5 |
| 20260905135806 | 69 | 338 | 6.0 | 11.0 | 0.00 | 0.02 | 0.02 | 64 | 1016.3 |
| 20260905134907 | 69 | 315 | 4.0 | 7.0 | 0.02 | 0.02 | 0.02 | 66 | 1016.0 |
| 20260905134007 | 69 | 315 | 4.0 | 11.0 | 0.02 | 0.02 | 0.02 | 66 | 1015.9 |
| 20260905133107 | 69 | 360 | 6.0 | 11.0 | 0.02 | 0.02 | 0.02 | 67 | 1015.9 |
| 20260905130407 | 67 | 360 | 8.0 | 11.0 | 0.02 | 0.02 | 0.02 | 75 | 1015.8 |
| 20260905125506 | 65 | 315 | 2.0 | 11.0 | 0.02 | 0.02 | 0.02 | 80 | 1015.8 |
| 20260905124607 | 69 | 360 | 4.0 | 18.0 | 0.00 | 0.00 | 0.00 | 73 | 1016.1 |
| 20260905123706 | 74 | 360 | 6.0 | 17.0 | 0.00 | 0.00 | 0.00 | 62 | 1015.8 |
| 20260905122807 | 76 | 292 | 12.0 | 21.0 | 0.00 | 0.00 | 0.00 | 60 | 1016.1 |
| 20260905121907 | 76 | 22 | 11.0 | 20.0 | 0.00 | 0.00 | 0.00 | 61 | 1015.7 |
| 20260905121007 | 78 | 338 | 11.0 | 20.0 | 0.00 | 0.00 | 0.00 | 57 | 1015.2 |
| 20260905120107 | 82 | 338 | 9.0 | 21.0 | 0.00 | 0.00 | 0.00 | 54 | 1014.9 |
| 20260905115207 | 83 | 315 | 8.0 | 17.0 | 0.00 | 0.00 | 0.00 | 52 | 1014.8 |
| 20260905114307 | 86 | 338 | 7.0 | 11.0 | 0.00 | 0.00 | 0.00 | 50 | 1014.3 |
| 20260905113407 | 85 | 338 | 4.0 | 7.0 | 0.00 | 0.00 | 0.00 | 50 | 1014.3 |
| 20260905111607 | 88 | 292 | 5.0 | 9.0 | 0.00 | 0.00 | 0.00 | 45 | 1013.7 |
| 20260905110707 | 87 | 338 | 4.0 | 9.0 | 0.00 | 0.00 | 0.00 | 45 | 1014.1 |
| 20260905105807 | 87 | 360 | 5.0 | 9.0 | 0.00 | 0.00 | 0.00 | 45 | 1013.9 |
| 20260905104906 | 87 | 338 | 2.0 | 7.0 | 0.00 | 0.00 | 0.00 | 42 | 1013.8 |
| 20260905103107 | 86 | 360 | 2.0 | 7.0 | 0.00 | 0.00 | 0.00 | 45 | 1013.9 |
| 20260905102207 | 87 | 315 | 0.0 | 4.0 | 0.00 | 0.00 | 0.00 | 45 | 1013.8 |
| 20260905101307 | 86 | 270 | 2.0 | 4.0 | 0.00 | 0.00 | 0.00 | 50 | 1013.7 |
| 20260905100407 | 85 | 292 | 2.0 | 8.0 | 0.00 | 0.00 | 0.00 | 46 | 1013.7 |
| 20260905095507 | 86 | 180 | 2.0 | 7.0 | 0.00 | 0.00 | 0.00 | 45 | 1013.7 |
| 20260905094607 | 86 | 248 | 2.0 | 6.0 | 0.00 | 0.00 | 0.00 | 46 | 1013.6 |
| 20260905093707 | 86 | 135 | 2.0 | 8.0 | 0.00 | 0.00 | 0.00 | 47 | 1013.6 |
| 20260905092806 | 85 | 180 | 3.0 | 9.0 | 0.00 | 0.00 | 0.00 | 46 | 1013.5 |
| 20260905091907 | 83 | 158 | 2.0 | 7.0 | 0.00 | 0.00 | 0.00 | 47 | 1013.7 |
| 20260905090107 | 83 | 135 | 2.0 | 7.0 | 0.00 | 0.00 | 0.00 | 49 | 1013.7 |
| 20260905085207 | 83 | 135 | 2.0 | 7.0 | 0.00 | 0.00 | 0.00 | 50 | 1014.0 |
| 20260905084307 | 83 | 135 | 3.0 | 6.0 | 0.00 | 0.00 | 0.00 | 50 | 1013.9 |
| 20260905083407 | 80 | 158 | 2.0 | 6.0 | 0.00 | 0.00 | 0.00 | 56 | 1013.8 |
| 20260905082506 | 82 | 135 | 3.0 | 6.0 | 0.00 | 0.00 | 0.00 | 53 | 1013.7 |
| 20260905081607 | 81 | 158 | 1.0 | 7.0 | 0.00 | 0.00 | 0.00 | 54 | 1013.9 |
| 20260905080707 | 82 | 270 | 2.0 | 8.0 | 0.00 | 0.00 | 0.00 | 50 | 1014.1 |
| 20260905075806 | 81 | 202 | 3.0 | 7.0 | 0.00 | 0.00 | 0.00 | 49 | 1013.8 |
| 20260905074907 | 77 | 248 | 4.0 | 7.0 | 0.00 | 0.00 | 0.00 | 54 | 1014.1 |
| 20260905073106 | 76 | 158 | 3.0 | 6.0 | 0.00 | 0.00 | 0.00 | 58 | 1014.3 |
| 20260905072207 | 75 | 202 | 2.0 | 6.0 | 0.00 | 0.00 | 0.00 | 60 | 1014.3 |
| 20260905071306 | 75 | 225 | 2.0 | 7.0 | 0.00 | 0.00 | 0.00 | 61 | 1014.5 |
| 20260905070407 | 75 | 225 | 2.0 | 8.0 | 0.00 | 0.00 | 0.00 | 59 | 1014.6 |
| 20260905065507 | 75 | 248 | 3.0 | 8.0 | 0.00 | 0.00 | 0.00 | 60 | 1014.7 |
| 20260905064607 | 75 | 270 | 2.0 | 7.0 | 0.00 | 0.00 | 0.00 | 61 | 1014.6 |